Showing default

KANOPUS-V 4, 43181

Orbit data source: Space-Track

KANOPUS-V 4, 43181 is a payload satellite owned by VNIIEM (CIS) in SSO that was launched on Thu, 01 Feb 2018 UTC via a SOYUZ-2-1A launch vehicle from the Vostochny Cosmodrome (VOSTO). Payloads include a variety of satellites, spacecraft, and rockets equipped with specific instruments for various scientific and technological missions. These include communications satellites like Starlink; space stations such as the ISS; scientific satellites like the Hubble; Earth observation satellites from companies like Planet Labs, Umbra, and HawkEye 360; GPS; miniature CubeSats for education and research; and military/defense satellites.

Loading next visibility...
KANOPUS-V 4 details
Identifier
43181, 2018-014B
Orbit
SSO
Last TLE update8 hours ago
Origin
Flag of CISVNIIEM (CIS)
ManufacturerVNIIEM
MissionOperational Civil Imaging
Bus & MotorKANOPUS, Unknown motor
Mass490 kg wet, 490 kg dry
Launch date (UTC)
2018-02-01 (7 years ago)
Launch vehicle
SOYUZ-2-1A
Launch site
Vostochny Cosmodrome (VOSTO)
Object type
Payload
Rocket body
Debris
Shape & HBRBox + 2 Pan, 6 m
Radar Cross Section1.665 m², Large (>1 m²)

Expand to show TLE details & history

TLE from 8 hours ago
0 KANOPUS-V 4
1 43181U 18014B   24361.27647899  .00007122  00000-0  31312-3 0  9994
2 43181  97.3889 265.8659 0001921  91.7193 268.4263 15.22190365382870
Epoch: 2024-12-26T06:38Z
Definitive object data (Epoch: 2024-12-26T06:38:07.784Z)
Latitude-0.00008°
Longitude71.07528°
Altitude502.366 km
Speed7.613 km/s
True Right ascension17h 43m 27s
True Declination0° 00' 00"
Sunlit
Object was in daylight at TLE epoch
Visualization TLE readout
Latitude23.49181°
Longitude68.18915°
Altitude501.702 km
Speed7.616 km/s
Apparent Right ascension20h 49m 02s
Apparent Declination-14° 34' 35"
Sunlit
Object is in daylight
Visualization observer readout
Local Sidereal Time13:59:30
Azimuth93.62° ESE
Elevation-18.707°
Doppler factor1
Orbital elements
Apogee altitude497.518 km
Perigee altitude494.877 km
Semi-major axis6,874.334 km
Eccentricity0.0001921
Inclination97.3889°
RAAN265.8659°
Arg. of periapsis91.7193°
True anomaly268.4043°
Mean anomaly268.4263°
Eccentric anomaly268.4153°
Mean motion3.808 °/min
BSTAR0.00031312
Orbital period94.54 mins
Loading maneuver chart data...
Loading historical data...
Loading historical data...
Loading historical data...
Loading historical data...
Loading historical data...
Loading historical data...
Loading historical data...

KANOPUS-V 4 Visibility forecast

Observer location: undefined°, undefined

Span
Click to sort rows by Start time (UTC) header in descending order
Start Az.
Max El. time (UTC)
Max El. Az.
Max El.
End time (UTC)
End Az.
6 mins2024-12-26 17:48:37.666Z159.419° S2024-12-26 17:51:37.666Z41.532° NE43.163°2024-12-26 17:54:37.666Z352.725° N
5 mins2024-12-27 06:52:37.666Z3.748° NNE2024-12-27 06:54:37.666Z286.926° WNW43.644°2024-12-27 06:57:37.666Z200.415° SSW
|